Date String (YYYY-MM-DD hh:mm:ss) UTC,Instrument flags,absolute air pressure of the measurement (hPa),sample flow rate (lpm),inlet stack bypass flow (lpm),air temperature of the measurement (°C),ambient temperature measured by the external sensor (°C),aerosol sample conditioner tube jacket temperature (°C),OPC LED temperature (°C),internal box temperature (°C),relative humidity of the measurement (%),span deviation,mass concentration of particles derived from Lorenz-Mie calculation of OPC scattering (μg/m³),mass concentration of particles derived from Lorenz-Mie calculation of OPC scattering (μg/m³),mass concentration of particles derived from Lorenz-Mie calculation of OPC scattering (μg/m³)
DateTimeUTC,F1_M11,P_M11,Q1_M11,Q2_M11,T1_M11,T2_M11,T3_M11,T4_M11,T5_M11,U1_M11,ZSPAN_M11,X2_M11,X0_M11,X1_M11
2023-06-24 08:00:00,SystemResetWarning,0829.0,5.00,000.00,029.9,026.1,000.0,038.5,031.1,6.9,0005.0,0005.34,0012.82,0004.33
2023-06-24 08:01:00,SystemResetWarning,0829.0,4.99,000.00,029.8,026.5,000.0,038.5,031.1,7.6,0004.8,0005.29,0013.16,0004.33
2023-06-24 08:02:00,SystemResetWarning,0829.0,4.99,000.00,029.8,026.9,000.0,038.5,031.1,7.2,0005.0,0005.31,0013.65,0004.34
2023-06-24 08:03:00,SystemResetWarning,0829.1,5.00,000.00,029.8,027.1,000.0,038.4,031.1,7.6,0004.6,0005.35,0014.24,0004.33
2023-06-24 08:04:00,SystemResetWarning,0829.1,5.00,000.00,029.8,027.4,000.0,038.4,031.2,8.0,0004.3,0005.32,0013.20,0004.32
2023-06-24 08:05:00,SystemResetWarning,0829.0,5.01,000.00,029.8,027.6,000.0,038.4,031.2,7.0,0004.4,0005.30,0013.98,0004.32
2023-06-24 08:06:00,SystemResetWarning,0829.1,5.01,000.00,029.8,027.7,000.0,038.4,031.2,7.6,0004.7,0005.26,0014.40,0004.33
2023-06-24 08:07:00,SystemResetWarning,0829.1,5.00,000.00,029.8,027.8,000.0,038.4,031.3,7.3,0005.0,0005.26,0013.81,0004.33
2023-06-24 08:08:00,SystemResetWarning,0829.1,4.99,000.00,029.8,027.9,000.0,038.4,031.3,7.0,0004.2,0005.28,0013.86,0004.32
2023-06-24 08:09:00,SystemResetWarning,0829.1,4.99,000.00,029.9,028.0,000.0,038.4,031.3,6.8,0004.1,0005.23,0013.71,0004.31
2023-06-24 08:10:00,SystemResetWarning,0829.1,5.00,000.00,029.9,028.1,000.0,038.4,031.3,6.6,0004.2,0005.23,0013.89,0004.30
2023-06-24 08:11:00,SystemResetWarning,0829.1,5.00,000.00,029.9,028.2,000.0,038.4,031.3,6.8,0004.5,0005.25,0013.81,0004.29
2023-06-24 08:12:00,SystemResetWarning,0829.1,5.00,000.00,029.9,028.2,000.0,038.4,031.3,6.8,0004.9,0005.28,0013.42,0004.29
2023-06-24 08:13:00,SystemResetWarning,0829.1,5.00,000.00,029.9,028.3,000.0,038.4,031.4,6.9,0004.4,0005.26,0013.04,0004.28
2023-06-24 08:14:00,SystemResetWarning,0829.1,5.00,000.00,029.9,028.3,000.0,038.4,031.4,6.8,0004.8,0005.27,0012.32,0004.28
2023-06-24 08:15:00,SystemResetWarning,0829.1,5.00,000.00,029.9,028.4,000.0,038.4,031.4,6.8,0004.8,0005.29,0012.36,0004.27
2023-06-24 08:16:00,SystemResetWarning,0829.1,5.00,000.00,030.0,028.4,000.0,038.5,031.4,6.6,0004.7,0005.28,0011.31,0004.27
2023-06-24 08:17:00,SystemResetWarning,0829.1,4.99,000.00,030.0,028.4,000.0,038.5,031.5,6.5,0004.5,0005.26,0011.21,0004.25
2023-06-24 08:18:00,SystemResetWarning,0829.1,5.01,000.00,030.0,028.5,000.0,038.5,031.5,6.5,0004.1,0005.23,0011.57,0004.24
2023-06-24 08:19:00,SystemResetWarning,0829.1,5.00,000.00,030.0,028.5,000.0,038.5,031.5,6.6,0004.4,0005.23,0011.70,0004.24
2023-06-24 08:20:00,SystemResetWarning,0829.1,5.01,000.00,030.0,028.5,000.0,038.5,031.5,6.5,0004.2,0005.25,0012.01,0004.24
2023-06-24 08:21:00,SystemResetWarning,0829.1,5.00,000.00,030.1,028.5,000.0,038.5,031.5,6.4,0003.9,0005.24,0011.75,0004.25
2023-06-24 08:22:00,SystemResetWarning,0829.1,5.00,000.00,030.1,028.6,000.0,038.5,031.6,6.4,0003.7,0005.20,0011.41,0004.24
2023-06-24 08:23:00,SystemResetWarning,0829.1,5.01,000.00,030.1,028.6,000.0,038.6,031.6,6.4,0003.8,0005.15,0011.35,0004.23
2023-06-24 08:24:00,SystemResetWarning,0829.1,5.00,000.00,030.1,028.6,000.0,038.6,031.6,6.4,0004.0,0005.15,0011.41,0004.23
2023-06-24 08:25:00,SystemResetWarning,0829.1,5.00,000.00,030.1,028.7,000.0,038.6,031.6,6.4,0003.9,0005.17,0011.53,0004.22
2023-06-24 08:26:00,SystemResetWarning,0829.2,4.99,000.00,030.2,028.7,000.0,038.6,031.7,6.5,0004.0,0005.15,0011.64,0004.23
2023-06-24 08:27:00,SystemResetWarning,0829.2,5.00,000.00,030.2,028.7,000.0,038.6,031.7,6.5,0004.3,0005.16,0011.97,0004.23
2023-06-24 08:28:00,SystemResetWarning,0829.2,5.00,000.00,030.2,028.7,000.0,038.7,031.7,6.6,0004.5,0005.17,0011.83,0004.23
2023-06-24 08:29:00,SystemResetWarning,0829.2,5.00,000.00,030.2,028.7,000.0,038.7,031.7,6.5,0004.7,0005.17,0010.94,0004.23
2023-06-24 08:30:00,SystemResetWarning,0829.2,5.00,000.00,030.2,028.7,000.0,038.7,031.7,6.6,0004.5,0005.17,0010.80,0004.23
2023-06-24 08:31:00,SystemResetWarning,0829.3,5.01,000.00,030.2,028.7,000.0,038.7,031.7,6.6,0004.5,0005.17,0010.68,0004.23
2023-06-24 08:32:00,SystemResetWarning,0829.3,5.01,000.00,030.2,028.7,000.0,038.7,031.7,6.4,0004.7,0005.14,0010.58,0004.22
2023-06-24 08:33:00,SystemResetWarning,0829.2,5.00,000.00,030.3,028.7,000.0,038.7,031.7,6.5,0004.7,0005.16,0010.70,0004.23
2023-06-24 08:34:00,SystemResetWarning,0829.2,4.99,000.00,030.3,028.8,000.0,038.8,031.8,6.5,0004.3,0005.20,0011.03,0004.22
2023-06-24 08:35:00,SystemResetWarning,0829.3,4.99,000.00,030.3,028.8,000.0,038.8,031.8,6.5,0004.3,0005.22,0010.62,0004.22
2023-06-24 08:36:00,SystemResetWarning,0829.3,4.99,000.00,030.3,028.8,000.0,038.8,031.8,6.7,0004.4,0005.22,0010.61,0004.23
2023-06-24 08:37:00,SystemResetWarning,0829.2,5.00,000.00,030.3,028.2,000.0,038.8,031.8,6.6,0004.5,0005.24,0010.62,0004.21
2023-06-24 08:38:00,SystemResetWarning,0829.3,5.01,000.00,030.3,025.5,000.0,038.7,031.8,6.7,0004.6,0005.31,0010.69,0004.21
2023-06-24 08:39:00,SystemResetWarning,0829.3,5.01,000.00,030.3,024.7,000.0,038.6,031.6,7.1,0004.7,0005.36,0011.41,0004.20
2023-06-24 08:40:00,SystemResetWarning,0829.3,5.01,000.00,030.1,024.9,000.0,038.6,031.2,7.3,0004.6,0005.40,0012.07,0004.22
2023-06-24 08:41:00,SystemResetWarning,0829.2,5.00,000.00,030.0,025.3,000.0,038.6,031.1,7.5,0004.2,0005.40,0012.61,0004.22
2023-06-24 08:42:00,SystemResetWarning,0829.2,4.99,000.00,029.9,025.8,000.0,038.6,031.1,8.0,0004.2,0005.38,0013.08,0004.21
2023-06-24 08:43:00,SystemResetWarning,0829.2,5.00,000.00,029.9,026.3,000.0,038.6,031.2,8.0,0004.6,0005.39,0013.53,0004.21
2023-06-24 08:44:00,SystemResetWarning,0829.2,5.01,000.00,029.9,026.6,000.0,038.5,031.1,8.5,0004.7,0005.37,0014.00,0004.21
2023-06-24 08:45:00,SystemResetWarning,0829.3,5.00,000.00,029.9,026.9,000.0,038.5,031.1,7.9,0002.6,0005.41,0016.43,0004.20
2023-06-24 08:46:00,SystemResetWarning,0829.2,4.98,000.00,029.9,027.2,000.0,038.5,031.2,7.9,0000.0,0005.43,0016.45,0004.21
2023-06-24 08:47:00,SystemResetWarning,0829.3,5.00,000.00,029.8,027.4,000.0,038.5,031.2,7.8,0000.0,0005.37,0016.25,0004.20
2023-06-24 08:48:00,SystemResetWarning,0829.3,5.00,000.00,029.8,027.6,000.0,038.5,031.2,8.0,0000.0,0005.36,0016.65,0004.21
2023-06-24 08:49:00,SystemResetWarning,0829.3,5.01,000.00,029.9,027.7,000.0,038.5,031.3,7.7,0000.0,0005.31,0016.82,0004.21
2023-06-24 08:50:00,SystemResetWarning,0829.2,4.99,000.00,029.9,027.8,000.0,038.5,031.3,7.1,0000.0,0005.24,0016.19,0004.22
2023-06-24 08:51:00,SystemResetWarning,0829.2,5.00,000.00,029.9,027.9,000.0,038.5,031.3,7.1,0000.0,0005.23,0015.85,0004.22
2023-06-24 08:52:00,SystemResetWarning,0829.3,4.99,000.00,029.9,028.0,000.0,038.5,031.3,7.1,0000.0,0005.23,0016.17,0004.21
2023-06-24 08:53:00,SystemResetWarning,0829.3,5.00,000.00,029.9,028.1,000.0,038.5,031.3,7.1,0000.3,0005.22,0015.97,0004.21
2023-06-24 08:54:00,SystemResetWarning,0829.4,5.01,000.00,029.9,028.1,000.0,038.5,031.4,7.1,0001.6,0005.22,0015.44,0004.21
2023-06-24 08:55:00,SystemResetWarning,0829.3,5.01,000.00,029.9,028.2,000.0,038.5,031.4,7.1,0004.3,0005.23,0015.38,0004.20
2023-06-24 08:56:00,SystemResetWarning,0829.4,5.00,000.00,029.9,028.3,000.0,038.5,031.4,7.6,0004.7,0005.18,0013.20,0004.20
2023-06-24 08:57:00,SystemResetWarning,0829.4,4.99,000.00,030.0,028.3,000.0,038.5,031.4,7.5,0005.1,0005.17,0013.40,0004.19
2023-06-24 08:58:00,SystemResetWarning,0829.3,5.00,000.00,030.0,028.3,000.0,038.5,031.4,7.5,0004.9,0005.20,0014.06,0004.19
2023-06-24 08:59:00,SystemResetWarning,0829.4,5.01,000.00,030.0,028.4,000.0,038.5,031.4,7.4,0004.8,0005.23,0013.64,0004.20
